Regional Weather Roundup
Issued by NWS Grand Forks, ND

Home | Current Version | Previous Version | Graphics & Text | Print | Product List | Glossary On
Versions: 1 2 3 4 5 6 7 8 9 10 11 12 13 14 15 16 17 18 19 20 21 22 23 24 25 26 27 28 29 30 31 32 33 34 35 36 37 38 39 40 41 42 43 44 45 46 47 48 49 50
000
ASUS43 KFGF 210831
RWRFGF
PRAIRIE TO PINES  WEATHER ROUNDUP
NATIONAL WEATHER SERVICE EASTERN NORTH DAKOTA/GRAND FORKS ND
200 AM CST SAT JAN 21 2017

 **SATELLITE DATA USED TO AUGMENT SKY COVER AT AUTOMATED STATIONS**
 *****  WEATHER ACROSS EASTERN NORTH DAKOTA  *****

CITY           SKY/WX    TMP DP  RH WIND       PRES   REMARKS
GRAND FORKS    CLOUDY    35  32  88 SE10      29.42S
GRAND FRKS AFB CLOUDY    34  34 100 SE12      29.41S
DEVILS LAKE    LGT RAIN  33  32  96 SE7       29.36S VSB 1/2
FARGO          CLOUDY    39  35  86 SE9       29.41F
WAHPETON ARPT  CLOUDY    34  32  93 SE7       29.43S
$$

 ***** WEATHER ACROSS CENTRAL AND WESTERN NORTH DAKOTA  *****

CITY           SKY/WX    TMP DP  RH WIND       PRES   REMARKS
BISMARCK       CLOUDY    31  30  96 W7        29.32S FOG     WCI  24
MINOT          CLOUDY    29  27  92 SW5       29.31S FOG     WCI  24
JAMESTOWN      FOG       34  34 100 SE12      29.33S VSB 1/2
MINOT AFB      FOG       27  25  93 CALM      29.30F VSB 1/2
GARRISON         N/A     23  21  92 CALM      29.31S
WILLISTON      CLOUDY    22  20  92 CALM      29.30F
DICKINSON      CLOUDY    28  25  88 NW12      29.26F WCI  18
HETTINGER      MOCLDY    26  22  84 W10       29.29F WCI  16
$$

 *****  OTHER AIRPORT OBSERVATIONS IN OUR AREA  *****

CITY           SKY/WX    TMP DP  RH WIND       PRES   REMARKS
WALHALLA       NOT AVBL
GRAFTON AIRPOR CLOUDY    34  34 100 SE10      29.44S
VALLEY CITY AR LGT RAIN  32  32 100 SE10      29.38S VSB 1/4 WCI  24
CANDO          NOT AVBL
CAVALIER APRT  CLOUDY    34  34 100 SE8       29.41F FOG
GWINNER        CLOUDY    34  34 100 E12       29.37S VSB 1/2
SHEYENNE NWR     N/A     33  33 100 SE8       29.95S
ROLLA            N/A    N/A N/A N/A MISG        N/A
 ***** THE ABOVE OBSERVATIONS ARE NON NWS ARE NOT QUALITY
       CONTROLLED AND MAY MIS-REPORT RAIN FOR SNOW...
$$

  *****  WEATHER ACROSS NORTHERN MINNESOTA  *****

CITY           SKY/WX    TMP DP  RH WIND       PRES   REMARKS
FLAG ISLAND    CLOUDY    34  32  93 SE6       29.49S
WARROAD        CLOUDY    36  30  80 SE8       29.48S
ROSEAU         CLOUDY    36  30  80 SE6       29.47S FOG
HALLOCK        CLOUDY    36  34  93 SE10      29.43S
THF RVR FALLS  CLOUDY    34  33  96 SE15      29.45S WCI  24
BAUDETTE       CLOUDY    34  33  96 SE7       29.49S FOG
WASKISH        CLOUDY    36  34  93 SE7       29.49F
CROOKSTON      CLOUDY    36  34  93 SE10      29.43F
STEPHEN NDAWN    N/A     36  34  93 SE10        N/A
GREENBUSH NDAW   N/A     34  34 100 SE5         N/A
$$
  *****  WEATHER ACROSS CENTRAL AND WEST MINNESOTA  *****

CITY           SKY/WX    TMP DP  RH WIND       PRES   REMARKS
FOSSTON        CLOUDY    34  32  93 SE9       29.44F
BEMIDJI        CLOUDY    33  33 100 SE8       29.47F
PARK RAPIDS    CLOUDY    34  32  92 SE7       29.46F FOG
ELBOW LAKE     CLOUDY    33  33 100 SE8       29.43F FOG
WADENA         CLOUDY    32  32 100 E6        29.45F FOG
DETROIT LAKES  CLOUDY    34  34 100 SE10      29.44F FOG
MOORHEAD       CLOUDY    34  34 100 SE8       29.43S
FERGUS FALLS   CLOUDY    36  36 100 SE13      29.47S
MORRIS MN      CLOUDY    34  34 100 SE12      29.42S FOG
STAPLES        CLOUDY    34  34 100 CALM      29.47S FOG
$$
  *****  WEATHER ELSEWHERE ACROSS MINNESOTA  *****

CITY           SKY/WX    TMP DP  RH WIND       PRES   REMARKS
DULUTH         DRZL/FOG  34  34 100 SE8       29.53F VSB 1/8
INTRNTL FALLS  LGT SNOW  33  32  96 SE6       29.53S FOG
ELY            CLOUDY    34  34 100 CALM      29.55S
CLOQUET        FOG       34  34 100 E5        29.53S VSB 1/4
WHEATON        CLOUDY    39  39 100 SE12      29.44R FOG
BRAINERD       FOG       33  33 100 SE7       29.49F VSB 3/4
HIBBING        CLOUDY    32  32 100 SE6       29.52F FOG
ALEXANDRIA     CLOUDY    33  33 100 E12       29.44F FOG     WCI  24
SAINT CLOUD    FOG       34  34 100 E5        29.48F VSB 1/2
MINNEAPOLIS    CLOUDY    35  34  96 SE8       29.50F FOG
$$

  *****  WEATHER ACROSS SOUTH DAKOTA  *****

CITY           SKY/WX    TMP DP  RH WIND       PRES   REMARKS
SIOUX FALLS    CLOUDY    36  36 100 SE7       29.36S FOG
BROOKINGS      FOG       36  34  93 SE12      29.35S VSB 1/2
WATERTOWN      FOG       34  34 100 SE9       29.34F VSB 1/4
HURON          FOG       37  37 100 S5        29.33S VSB 1/2
SISSETON         N/A     34  34 100 SE12      29.38F
ABERDEEN       CLOUDY    30  27  88 N6        29.34F FOG     WCI  24
MITCHELL       CLOUDY    38  38 100 S6        29.34F FOG
PIERRE         CLOUDY    26  25  96 NW9       29.31F WCI  17
MOBRIDGE       FOG       24  20  84 SE5       29.28F VSB 1   WCI  18
RAPID CITY     CLOUDY    34  31  88 N15       29.34F WCI  24
$$

  *****  SOME WEATHER IN NEARBY STATES *****

CITY           SKY/WX    TMP DP  RH WIND       PRES   REMARKS
GLASGOW MT     FAIR      22  21  96 NW7       29.33S WCI  13
GREAT FALLS MT FAIR      24  17  74 S9        29.31F WCI  14
CHEYENNE WY    FAIR      24  16  71 SW9       29.40F WCI  14
SCOTTSBLUFF NE FAIR      28  22  78 NW5       29.40S WCI  23
OMAHA NE       CLOUDY    40  37  89 S3        29.39S FOG
DES MOINES IA  FOG       42  42 100 S3        29.41R VSB 1/4
DAVENPORT IA   FOG       43  42  97 E9        29.50S VSB 3/4
CHICAGO IL     CLOUDY    45  45 100 SE9       29.58S FOG
EAU CLAIRE WI  CLOUDY    34  34 100 E6        29.53F FOG
LA CROSSE WI   CLOUDY    39  36  89 CALM      29.52F
$$

  *****  SOME NATIONAL WEATHER *****

CITY           SKY/WX    TMP DP  RH WIND       PRES   REMARKS
LA GUARDIA NY  CLOUDY    45  40  82 SW8       29.91F FOG
RALEIGH NC     FOG       52  51  97 E5        29.92R VSB 1/8
ATLANTA GA     FOG       63  63 100 S6        29.87S VSB 1/4
NEW ORLEANS LA CLOUDY    72  71  97 S15       29.68F
OKLAHOMA CITY  FAIR      46  33  60 SW6       29.55F
ALBUQUERQUE NM CLOUDY    38  35  89 E7        29.53F
SALT LAKE CITY MOCLDY    36  29  75 S10       29.27F
LOS ANGELES CA FAIR      54  44  69 W26G35    29.60R
BOISE ID       CLOUDY    35  31  85 SE12      29.27S
SEATTLE WA     CLOUDY    42  39  89 S3        29.20R
$$

*** WEATHER ACROSS MANITOBA...SASKATCHEWAN AND ONTARIO ***
                ***ONTARIO***

CITY           SKY/WX    TMP DP  RH WIND       PRES   REMARKS
GERALDTON      FOG       32  32 100 SE2       29.67R VSB 1/8
THUNDER BAY    DRIZZLE   34  34 100 E6        29.64R FOG
SIOUX LOOKOUT  LGT RAIN  36  34  93 E6        29.58S
TORONTO        CLOUDY    37  37 100 S3        29.78R
BIG TROUT LK   CLOUDY    27  25  93 SE6       29.70R WCI  20
PICKLE LAKE    NOT AVBL
DRYDEN         LGT RAIN  36  36 100 SE9       29.55R
KENORA         LGT SNOW  32  32 100 SE8       29.50F VSB 3/4 WCI  25
$$
                *** MANITOBA***

CITY           SKY/WX    TMP DP  RH WIND       PRES   REMARKS
BRANDON        FOG       32  32 100 SE7       29.35F VSB 1
DAUPHIN        LGT SNOW  28  27  93 CALM      29.39S
ISLAND LAKE    DRZL/FOG  32  32 100 E5        29.58S VSB 3/4
PILOT MOUND      N/A     32  32 100 SE13        N/A  WCI  22
THE PAS        LGT SNOW  27  25  93 NE3       29.43R FOG
THOMPSON       LGT SNOW  27  25  93 E6        29.57S FOG     WCI  20
WINNIPEG       DRIZZLE   34  34 100 SE10      29.44F FOG
LYNN LAKE      CLOUDY    27  27 100 SE10      29.52R WCI  17
CHURCHILL      FLURRIES  19  18  93 SE18      29.81S WCI   4
GILLAM         FLURRIES  28  27  93 SE8       29.66S WCI  20
$$
                ***SASKATCHEWAN***

CITY           SKY/WX    TMP DP  RH WIND       PRES   REMARKS
ESTEVAN        FOG       12  10  92 NE7       29.30F VSB 1/8 WCI   2
KINDERSLEY     PTCLDY    21  19  93 NW6       29.31F FOG     WCI  14
LLOYDMINSTER   SNOW      23  21  93 N6        29.37S VSB 3/8 WCI  16
PRINCE ALBERT  CLOUDY    28  27  93 NE5       29.35S WCI  23
REGINA         CLOUDY    19  18  93 SE7       29.28F WCI  10
YORKTON        MOCLDY    25  23  93 S5        29.31S WCI  19
N. BATTLEFORD  CLOUDY    27  27 100 N9        29.36S WCI  17
LA RONGE       FOG       27  27 100 NE6       29.42R VSB 5/8 WCI  20
SASKATOON      CLOUDY    28  27  93 N6        29.34R WCI  22
SWIFT CURRENT  CLOUDY    25  23  93 W12       29.28S WCI  14
$$
NOTE: THESE ARE AUTOMATED STATIONS WITH LIMITED QUALITY CONTROL
      "FAIR" INDICATES FEW OR NO CLOUDS BELOW 12,000 FEET WITH NO
      SIGNIFICANT WEATHER AND/OR OBSTRUCTIONS TO VISIBILITY.
      SKY/WX - SKY CONDITION AND SIGNIFICANT WEATHER.
      TMP - AIR TEMPERATURE.    DP   - DEWPOINT TEMPERATURE.
      RH  - RELATIVE HUMIDITY.  PRES - PRESSURE.
      HX  - HEAT INDEX.         WCI  - WIND CHILL INDEX.
$




USA.gov is the U.S. government's official web portal to all federal, state and local government web resources and services.